Year,Month,Day,Hour,Minute,Value (Times are PST for temperature in C)
2010,08,30,00,00,14.00
2010,08,30,00,01,14.00
2010,08,30,00,02,14.00
2010,08,30,00,03,14.00
2010,08,30,00,04,14.00
2010,08,30,00,05,14.00
2010,08,30,00,06,14.00
2010,08,30,00,07,14.00
2010,08,30,00,08,13.90
2010,08,30,00,09,13.90
2010,08,30,00,10,13.90
2010,08,30,00,11,13.90
2010,08,30,00,12,13.90
2010,08,30,00,13,13.90
2010,08,30,00,14,13.90
2010,08,30,00,15,13.90
2010,08,30,00,16,13.90
2010,08,30,00,17,13.90
2010,08,30,00,18,13.90
2010,08,30,00,19,13.90
2010,08,30,00,20,13.90
2010,08,30,00,21,13.90
2010,08,30,00,22,13.90
2010,08,30,00,23,13.80
2010,08,30,00,24,13.80
2010,08,30,00,25,13.80
2010,08,30,00,26,13.80
2010,08,30,00,27,13.80
2010,08,30,00,28,13.80
2010,08,30,00,29,13.80
2010,08,30,00,30,13.80
2010,08,30,00,31,13.80
2010,08,30,00,32,13.80
2010,08,30,00,33,13.80
2010,08,30,00,34,13.80
2010,08,30,00,35,13.80
2010,08,30,00,36,13.80
2010,08,30,00,37,13.80
2010,08,30,00,38,13.80
2010,08,30,00,39,13.80
2010,08,30,00,40,13.80
2010,08,30,00,41,13.80
2010,08,30,00,42,13.80
2010,08,30,00,43,13.80
2010,08,30,00,44,13.80
2010,08,30,00,45,13.80
2010,08,30,00,46,13.80
2010,08,30,00,47,13.80
2010,08,30,00,48,13.80
2010,08,30,00,49,13.80
2010,08,30,00,50,13.80
2010,08,30,00,51,13.80
2010,08,30,00,52,13.80
2010,08,30,00,53,13.80
2010,08,30,00,54,13.80
2010,08,30,00,55,13.80
2010,08,30,00,56,13.80
2010,08,30,00,57,13.80
2010,08,30,00,58,13.80
2010,08,30,00,59,13.80
2010,08,30,01,00,13.80
2010,08,30,01,01,13.80
2010,08,30,01,02,13.80
2010,08,30,01,03,13.80
2010,08,30,01,04,13.80
2010,08,30,01,05,13.80
2010,08,30,01,06,13.80
2010,08,30,01,07,13.80
2010,08,30,01,08,13.80
2010,08,30,01,09,13.80
2010,08,30,01,10,13.80
2010,08,30,01,11,13.80
2010,08,30,01,12,13.80
2010,08,30,01,13,13.80
2010,08,30,01,14,13.80
2010,08,30,01,15,13.80
2010,08,30,01,16,13.80
2010,08,30,01,17,13.80
2010,08,30,01,18,13.80
2010,08,30,01,19,13.80
2010,08,30,01,20,13.80
2010,08,30,01,21,13.80
2010,08,30,01,22,13.80
2010,08,30,01,23,13.80
2010,08,30,01,24,13.80
2010,08,30,01,25,13.80
2010,08,30,01,26,13.80
2010,08,30,01,27,13.80
2010,08,30,01,28,13.80
2010,08,30,01,29,13.80
2010,08,30,01,30,13.80
2010,08,30,01,31,13.80
2010,08,30,01,32,13.80
2010,08,30,01,33,13.80
2010,08,30,01,34,13.80
2010,08,30,01,35,13.80
2010,08,30,01,36,13.80
2010,08,30,01,37,13.80
2010,08,30,01,38,13.80
2010,08,30,01,39,13.80
2010,08,30,01,40,13.80
2010,08,30,01,41,13.80
2010,08,30,01,42,13.70
2010,08,30,01,43,13.70
2010,08,30,01,44,13.70
2010,08,30,01,45,13.70
2010,08,30,01,46,13.70
2010,08,30,01,47,13.70
2010,08,30,01,48,13.70
2010,08,30,01,49,13.60
2010,08,30,01,50,13.60
2010,08,30,01,51,13.60
2010,08,30,01,52,13.60
2010,08,30,01,53,13.60
2010,08,30,01,54,13.60
2010,08,30,01,55,13.60
2010,08,30,01,56,13.60
2010,08,30,01,57,13.60
2010,08,30,01,58,13.60
2010,08,30,01,59,13.60
2010,08,30,02,00,13.60
2010,08,30,02,01,13.60
2010,08,30,02,02,13.50
2010,08,30,02,03,13.50
2010,08,30,02,04,13.50
2010,08,30,02,05,13.50
2010,08,30,02,06,13.50
2010,08,30,02,07,13.50
2010,08,30,02,08,13.50
2010,08,30,02,09,13.50
2010,08,30,02,10,13.60
2010,08,30,02,11,13.60
2010,08,30,02,12,13.60
2010,08,30,02,13,13.60
2010,08,30,02,14,13.60
2010,08,30,02,15,13.60
2010,08,30,02,16,13.60
2010,08,30,02,17,13.60
2010,08,30,02,18,13.60
2010,08,30,02,19,13.60
2010,08,30,02,20,13.60
2010,08,30,02,21,13.60
2010,08,30,02,22,13.60
2010,08,30,02,23,13.60
2010,08,30,02,24,13.60
2010,08,30,02,25,13.60
2010,08,30,02,26,13.60
2010,08,30,02,27,13.60
2010,08,30,02,28,13.60
2010,08,30,02,29,13.60
2010,08,30,02,30,13.60
2010,08,30,02,31,13.60
2010,08,30,02,32,13.60
2010,08,30,02,33,13.60
2010,08,30,02,34,13.60
2010,08,30,02,35,13.60
2010,08,30,02,36,13.60
2010,08,30,02,37,13.60
2010,08,30,02,38,13.60
2010,08,30,02,39,13.60
2010,08,30,02,40,13.60
2010,08,30,02,41,13.60
2010,08,30,02,42,13.60
2010,08,30,02,43,13.60
2010,08,30,02,44,13.60
2010,08,30,02,45,13.60
2010,08,30,02,46,13.60
2010,08,30,02,47,13.60
2010,08,30,02,48,13.60
2010,08,30,02,49,13.60
2010,08,30,02,50,13.60
2010,08,30,02,51,13.60
2010,08,30,02,52,13.60
2010,08,30,02,53,13.60
2010,08,30,02,54,13.60
2010,08,30,02,55,13.50
2010,08,30,02,56,13.50
2010,08,30,02,57,13.50
2010,08,30,02,58,13.50
2010,08,30,02,59,13.40
2010,08,30,03,00,13.40
2010,08,30,03,01,13.40
2010,08,30,03,02,13.40
2010,08,30,03,03,13.40
2010,08,30,03,04,13.30
2010,08,30,03,05,13.30
2010,08,30,03,06,13.30
2010,08,30,03,07,13.30
2010,08,30,03,08,13.30
2010,08,30,03,09,13.30
2010,08,30,03,10,13.30
2010,08,30,03,11,13.20
2010,08,30,03,12,13.20
2010,08,30,03,13,13.20
2010,08,30,03,14,13.20
2010,08,30,03,15,13.20
2010,08,30,03,16,13.20
2010,08,30,03,17,13.10
2010,08,30,03,18,13.10
2010,08,30,03,19,13.10
2010,08,30,03,20,13.10
2010,08,30,03,21,13.10
2010,08,30,03,22,13.10
2010,08,30,03,23,13.10
2010,08,30,03,24,13.10
2010,08,30,03,25,13.10
2010,08,30,03,26,13.10
2010,08,30,03,27,13.10
2010,08,30,03,28,13.10
2010,08,30,03,29,13.10
2010,08,30,03,30,13.10
2010,08,30,03,31,13.10
2010,08,30,03,32,13.00
2010,08,30,03,33,13.00
2010,08,30,03,34,13.00
2010,08,30,03,35,13.00
2010,08,30,03,36,13.00
2010,08,30,03,37,13.00
2010,08,30,03,38,12.90
2010,08,30,03,39,12.90
2010,08,30,03,40,12.90
2010,08,30,03,41,12.90
2010,08,30,03,42,12.90
2010,08,30,03,43,12.90
2010,08,30,03,44,12.90
2010,08,30,03,45,12.90
2010,08,30,03,46,12.90
2010,08,30,03,47,12.90
2010,08,30,03,48,12.90
2010,08,30,03,49,12.90
2010,08,30,03,50,12.90
2010,08,30,03,51,12.90
2010,08,30,03,52,12.90
2010,08,30,03,53,12.90
2010,08,30,03,54,12.80
2010,08,30,03,55,12.80
2010,08,30,03,56,12.80
2010,08,30,03,57,12.80
2010,08,30,03,58,12.80
2010,08,30,03,59,12.80
2010,08,30,04,00,12.80
2010,08,30,04,01,12.80
2010,08,30,04,02,12.80
2010,08,30,04,03,12.80
2010,08,30,04,04,12.80
2010,08,30,04,05,12.80
2010,08,30,04,06,12.80
2010,08,30,04,07,12.80
2010,08,30,04,08,12.80
2010,08,30,04,09,12.80
2010,08,30,04,10,12.80
2010,08,30,04,11,12.80
2010,08,30,04,12,12.80
2010,08,30,04,13,12.80
2010,08,30,04,14,12.80
2010,08,30,04,15,12.80
2010,08,30,04,16,12.80
2010,08,30,04,17,12.80
2010,08,30,04,18,12.80
2010,08,30,04,19,12.80
2010,08,30,04,20,12.80
2010,08,30,04,21,12.80
2010,08,30,04,22,12.80
2010,08,30,04,23,12.70
2010,08,30,04,24,12.70
2010,08,30,04,25,12.70
2010,08,30,04,26,12.70
2010,08,30,04,27,12.70
2010,08,30,04,28,12.70
2010,08,30,04,29,12.70
2010,08,30,04,30,12.70
2010,08,30,04,31,12.60
2010,08,30,04,32,12.60
2010,08,30,04,33,12.60
2010,08,30,04,34,12.60
2010,08,30,04,35,12.60
2010,08,30,04,36,12.50
2010,08,30,04,37,12.50
2010,08,30,04,38,12.50
2010,08,30,04,39,12.40
2010,08,30,04,40,12.40
2010,08,30,04,41,12.40
2010,08,30,04,42,12.30
2010,08,30,04,43,12.30
2010,08,30,04,44,12.30
2010,08,30,04,45,12.30
2010,08,30,04,46,12.30
2010,08,30,04,47,12.20
2010,08,30,04,48,12.20
2010,08,30,04,49,12.20
2010,08,30,04,50,12.10
2010,08,30,04,51,12.10
2010,08,30,04,52,12.10
2010,08,30,04,53,12.00
2010,08,30,04,54,12.00
2010,08,30,04,55,11.90
2010,08,30,04,56,11.90
2010,08,30,04,57,11.90
2010,08,30,04,58,11.90
2010,08,30,04,59,11.80
2010,08,30,05,00,11.80
2010,08,30,05,01,11.80
2010,08,30,05,02,11.70
2010,08,30,05,03,11.70
2010,08,30,05,04,11.70
2010,08,30,05,05,11.60
2010,08,30,05,06,11.60
2010,08,30,05,07,11.60
2010,08,30,05,08,11.50
2010,08,30,05,09,11.50
2010,08,30,05,10,11.50
2010,08,30,05,11,11.40
2010,08,30,05,12,11.40
2010,08,30,05,13,11.30
2010,08,30,05,14,11.30
2010,08,30,05,15,11.30
2010,08,30,05,16,11.30
2010,08,30,05,17,11.20
2010,08,30,05,18,11.20
2010,08,30,05,19,11.20
2010,08,30,05,20,11.10
2010,08,30,05,21,11.10
2010,08,30,05,22,11.10
2010,08,30,05,23,11.10
2010,08,30,05,24,11.00
2010,08,30,05,25,11.00
2010,08,30,05,26,10.90
2010,08,30,05,27,10.90
2010,08,30,05,28,10.90
2010,08,30,05,29,10.90
2010,08,30,05,30,10.90
2010,08,30,05,31,10.80
2010,08,30,05,32,10.80
2010,08,30,05,33,10.80
2010,08,30,05,34,10.80
2010,08,30,05,35,10.80
2010,08,30,05,36,10.70
2010,08,30,05,37,10.70
2010,08,30,05,38,10.70
2010,08,30,05,39,10.70
2010,08,30,05,40,10.70
2010,08,30,05,41,10.60
2010,08,30,05,42,10.60
2010,08,30,05,43,10.60
2010,08,30,05,44,10.60
2010,08,30,05,45,10.60
2010,08,30,05,46,10.50
2010,08,30,05,47,10.50
2010,08,30,05,48,10.50
2010,08,30,05,49,10.50
2010,08,30,05,50,10.40
2010,08,30,05,51,10.40
2010,08,30,05,52,10.40
2010,08,30,05,53,10.40
2010,08,30,05,54,10.30
2010,08,30,05,55,10.30
2010,08,30,05,56,10.30
2010,08,30,05,57,10.30
2010,08,30,05,58,10.30
2010,08,30,05,59,10.20
2010,08,30,06,00,10.20
2010,08,30,06,01,10.20
2010,08,30,06,02,10.20
2010,08,30,06,03,10.20
2010,08,30,06,04,10.20
2010,08,30,06,05,10.10
2010,08,30,06,06,10.10
2010,08,30,06,07,10.10
2010,08,30,06,08,10.10
2010,08,30,06,09,10.10
2010,08,30,06,10,10.10
2010,08,30,06,11,10.10
2010,08,30,06,12,10.00
2010,08,30,06,13,10.00
2010,08,30,06,14,10.00
2010,08,30,06,15,10.00
2010,08,30,06,16,10.00
2010,08,30,06,17,10.00
2010,08,30,06,18,10.00
2010,08,30,06,19,10.00
2010,08,30,06,20,10.00
2010,08,30,06,21,10.00
2010,08,30,06,22,10.00
2010,08,30,06,23,10.00
2010,08,30,06,24,10.10
2010,08,30,06,25,10.10
2010,08,30,06,26,10.10
2010,08,30,06,27,10.10
2010,08,30,06,28,10.10
2010,08,30,06,29,10.00
2010,08,30,06,30,10.10
2010,08,30,06,31,10.10
2010,08,30,06,32,10.00
2010,08,30,06,33,10.00
2010,08,30,06,34,10.00
2010,08,30,06,35,10.00
2010,08,30,06,36,10.00
2010,08,30,06,37,10.00
2010,08,30,06,38,10.00
2010,08,30,06,39,9.90
2010,08,30,06,40,9.90
2010,08,30,06,41,9.90
2010,08,30,06,42,9.90
2010,08,30,06,43,9.90
2010,08,30,06,44,9.90
2010,08,30,06,45,9.80
2010,08,30,06,46,9.80
2010,08,30,06,47,9.80
2010,08,30,06,48,9.80
2010,08,30,06,49,9.80
2010,08,30,06,50,9.80
2010,08,30,06,51,9.80
2010,08,30,06,52,9.70
2010,08,30,06,53,9.70
2010,08,30,06,54,9.70
2010,08,30,06,55,9.70
2010,08,30,06,56,9.70
2010,08,30,06,57,9.70
2010,08,30,06,58,9.70
2010,08,30,06,59,9.70
2010,08,30,07,00,9.70
2010,08,30,07,01,9.70
2010,08,30,07,02,9.70
2010,08,30,07,03,9.70
2010,08,30,07,04,9.70
2010,08,30,07,05,9.70
2010,08,30,07,06,9.70
2010,08,30,07,07,9.70
2010,08,30,07,08,9.70
2010,08,30,07,09,9.70
2010,08,30,07,10,9.70
2010,08,30,07,11,9.70
2010,08,30,07,12,9.70
2010,08,30,07,13,9.80
2010,08,30,07,14,9.80
2010,08,30,07,15,9.80
2010,08,30,07,16,9.80
2010,08,30,07,17,9.80
2010,08,30,07,18,9.90
2010,08,30,07,19,9.90
2010,08,30,07,20,10.00
2010,08,30,07,21,10.00
2010,08,30,07,22,10.10
2010,08,30,07,23,10.10
2010,08,30,07,24,10.20
2010,08,30,07,25,10.20
2010,08,30,07,26,10.30
2010,08,30,07,27,10.30
2010,08,30,07,28,10.40
2010,08,30,07,29,10.40
2010,08,30,07,30,10.40
2010,08,30,07,31,10.50
2010,08,30,07,32,10.60
2010,08,30,07,33,10.60
2010,08,30,07,34,10.60
2010,08,30,07,35,10.70
2010,08,30,07,36,10.70
2010,08,30,07,37,10.80
2010,08,30,07,38,10.80
2010,08,30,07,39,10.80
2010,08,30,07,40,10.80
2010,08,30,07,41,10.90
2010,08,30,07,42,10.90
2010,08,30,07,43,10.90
2010,08,30,07,44,10.90
2010,08,30,07,45,10.90
2010,08,30,07,46,11.00
2010,08,30,07,47,11.00
2010,08,30,07,48,11.00
2010,08,30,07,49,11.00
2010,08,30,07,50,11.10
2010,08,30,07,51,11.10
2010,08,30,07,52,11.10
2010,08,30,07,53,11.10
2010,08,30,07,54,11.10
2010,08,30,07,55,11.20
2010,08,30,07,56,11.20
2010,08,30,07,57,11.20
2010,08,30,07,58,11.20
2010,08,30,07,59,11.20
2010,08,30,08,00,11.20
2010,08,30,08,01,11.30
2010,08,30,08,02,11.30
2010,08,30,08,03,11.30
2010,08,30,08,04,11.40
2010,08,30,08,05,11.40
2010,08,30,08,06,11.40
2010,08,30,08,07,11.50
2010,08,30,08,08,11.50
2010,08,30,08,09,11.60
2010,08,30,08,10,11.60
2010,08,30,08,11,11.60
2010,08,30,08,12,11.70
2010,08,30,08,13,11.70
2010,08,30,08,14,11.80
2010,08,30,08,15,11.80
2010,08,30,08,16,11.80
2010,08,30,08,17,11.80
2010,08,30,08,18,11.90
2010,08,30,08,19,11.90
2010,08,30,08,20,11.90
2010,08,30,08,21,12.00
2010,08,30,08,22,12.10
2010,08,30,08,23,12.10
2010,08,30,08,24,12.20
2010,08,30,08,25,12.20
2010,08,30,08,26,12.20
2010,08,30,08,27,12.30
2010,08,30,08,28,12.30
2010,08,30,08,29,12.30
2010,08,30,08,30,12.40
2010,08,30,08,31,12.40
2010,08,30,08,32,12.50
2010,08,30,08,33,12.50
2010,08,30,08,34,12.60
2010,08,30,08,35,12.60
2010,08,30,08,36,12.70
2010,08,30,08,37,12.70
2010,08,30,08,38,12.80
2010,08,30,08,39,12.90
2010,08,30,08,40,12.90
2010,08,30,08,41,13.00
2010,08,30,08,42,13.10
2010,08,30,08,43,13.20
2010,08,30,08,44,13.30
2010,08,30,08,45,13.30
2010,08,30,08,46,13.40
2010,08,30,08,47,13.50
2010,08,30,08,48,13.60
2010,08,30,08,49,13.70
2010,08,30,08,50,13.90
2010,08,30,08,51,14.00
2010,08,30,08,52,14.10
2010,08,30,08,53,14.20
2010,08,30,08,54,14.40
2010,08,30,08,55,14.50
2010,08,30,08,56,14.70
2010,08,30,08,57,14.80
2010,08,30,08,58,15.00
2010,08,30,08,59,15.00
2010,08,30,09,00,15.00
2010,08,30,09,01,15.00
2010,08,30,09,02,15.00
2010,08,30,09,03,15.00
2010,08,30,09,04,15.00
2010,08,30,09,05,15.00
2010,08,30,09,06,15.00
2010,08,30,09,07,14.90
2010,08,30,09,08,14.80
2010,08,30,09,09,14.80
2010,08,30,09,10,14.70
2010,08,30,09,11,14.70
2010,08,30,09,12,14.70
2010,08,30,09,13,14.70
2010,08,30,09,14,14.80
2010,08,30,09,15,14.80
2010,08,30,09,16,14.90
2010,08,30,09,17,14.90
2010,08,30,09,18,14.90
2010,08,30,09,19,15.00
2010,08,30,09,20,15.00
2010,08,30,09,21,15.00
2010,08,30,09,22,15.00
2010,08,30,09,23,15.00
2010,08,30,09,24,15.10
2010,08,30,09,25,15.20
2010,08,30,09,26,15.30
2010,08,30,09,27,15.40
2010,08,30,09,28,15.50
2010,08,30,09,29,15.60
2010,08,30,09,30,15.60
2010,08,30,09,31,15.70
2010,08,30,09,32,15.80
2010,08,30,09,33,15.80
2010,08,30,09,34,15.90
2010,08,30,09,35,16.00
2010,08,30,09,36,16.00
2010,08,30,09,37,16.10
2010,08,30,09,38,16.10
2010,08,30,09,39,16.20
2010,08,30,09,40,16.20
2010,08,30,09,41,16.10
2010,08,30,09,42,16.10
2010,08,30,09,43,16.10
2010,08,30,09,44,16.00
2010,08,30,09,45,16.00
2010,08,30,09,46,16.00
2010,08,30,09,47,16.00
2010,08,30,09,48,15.90
2010,08,30,09,49,15.90
2010,08,30,09,50,16.00
2010,08,30,09,51,16.00
2010,08,30,09,52,16.10
2010,08,30,09,53,16.10
2010,08,30,09,54,16.10
2010,08,30,09,55,16.20
2010,08,30,09,56,16.20
2010,08,30,09,57,16.20
2010,08,30,09,58,16.30
2010,08,30,09,59,16.30
2010,08,30,10,00,16.30
2010,08,30,10,01,16.30
2010,08,30,10,02,16.30
2010,08,30,10,03,16.30
2010,08,30,10,04,16.30
2010,08,30,10,05,16.30
2010,08,30,10,06,16.30
2010,08,30,10,07,16.40
2010,08,30,10,08,16.40
2010,08,30,10,09,16.40
2010,08,30,10,10,16.40
2010,08,30,10,11,16.50
2010,08,30,10,12,16.50
2010,08,30,10,13,16.60
2010,08,30,10,14,16.60
2010,08,30,10,15,16.60
2010,08,30,10,16,16.60
2010,08,30,10,17,16.60
2010,08,30,10,18,16.50
2010,08,30,10,19,16.40
2010,08,30,10,20,16.40
2010,08,30,10,21,16.30
2010,08,30,10,22,16.20
2010,08,30,10,23,16.20
2010,08,30,10,24,16.20
2010,08,30,10,25,16.20
2010,08,30,10,26,16.30
2010,08,30,10,27,16.40
2010,08,30,10,28,16.50
2010,08,30,10,29,16.50
2010,08,30,10,30,16.60
2010,08,30,10,31,16.70
2010,08,30,10,32,16.70
2010,08,30,10,33,16.70
2010,08,30,10,34,16.80
2010,08,30,10,35,16.80
2010,08,30,10,36,16.90
2010,08,30,10,37,16.90
2010,08,30,10,38,16.80
2010,08,30,10,39,16.90
2010,08,30,10,40,16.90
2010,08,30,10,41,17.00
2010,08,30,10,42,17.00
2010,08,30,10,43,17.10
2010,08,30,10,44,17.10
2010,08,30,10,45,17.20
2010,08,30,10,46,17.10
2010,08,30,10,47,17.10
2010,08,30,10,48,17.10
2010,08,30,10,49,17.10
2010,08,30,10,50,17.10
2010,08,30,10,51,17.10
2010,08,30,10,52,17.10
2010,08,30,10,53,17.10
2010,08,30,10,54,17.10
2010,08,30,10,55,17.10
2010,08,30,10,56,17.10
2010,08,30,10,57,17.10
2010,08,30,10,58,17.00
2010,08,30,10,59,16.90
2010,08,30,11,00,16.90
2010,08,30,11,01,16.90
2010,08,30,11,02,16.90
2010,08,30,11,03,16.90
2010,08,30,11,04,17.00
2010,08,30,11,05,17.10
2010,08,30,11,06,17.00
2010,08,30,11,07,16.90
2010,08,30,11,08,16.90
2010,08,30,11,09,16.90
2010,08,30,11,10,16.90
2010,08,30,11,11,16.90
2010,08,30,11,12,16.90
2010,08,30,11,13,16.80
2010,08,30,11,14,16.80
2010,08,30,11,15,16.80
2010,08,30,11,16,16.80
2010,08,30,11,17,16.80
2010,08,30,11,18,16.70
2010,08,30,11,19,16.70
2010,08,30,11,20,16.70
2010,08,30,11,21,16.60
2010,08,30,11,22,16.60
2010,08,30,11,23,16.60
2010,08,30,11,24,16.70
2010,08,30,11,25,16.70
2010,08,30,11,26,16.70
2010,08,30,11,27,16.80
2010,08,30,11,28,16.80
2010,08,30,11,29,16.80
2010,08,30,11,30,16.80
2010,08,30,11,31,16.80
2010,08,30,11,32,16.90
2010,08,30,11,33,16.90
2010,08,30,11,34,16.90
2010,08,30,11,35,17.00
2010,08,30,11,36,17.10
2010,08,30,11,37,17.10
2010,08,30,11,38,17.10
2010,08,30,11,39,17.20
2010,08,30,11,40,17.30
2010,08,30,11,41,17.30
2010,08,30,11,42,17.30
2010,08,30,11,43,17.30
2010,08,30,11,44,17.30
2010,08,30,11,45,17.30
2010,08,30,11,46,17.40
2010,08,30,11,47,17.40
2010,08,30,11,48,17.40
2010,08,30,11,49,17.50
2010,08,30,11,50,17.50
2010,08,30,11,51,17.60
2010,08,30,11,52,17.70
2010,08,30,11,53,17.70
2010,08,30,11,54,17.70
2010,08,30,11,55,17.70
2010,08,30,11,56,17.80
2010,08,30,11,57,17.80
2010,08,30,11,58,17.80
2010,08,30,11,59,17.80
2010,08,30,12,00,17.70
2010,08,30,12,01,17.70
2010,08,30,12,02,17.70
2010,08,30,12,03,17.70
2010,08,30,12,04,17.60
2010,08,30,12,05,17.50
2010,08,30,12,06,17.40
2010,08,30,12,07,17.30
2010,08,30,12,08,17.30
2010,08,30,12,09,17.30
2010,08,30,12,10,17.20
2010,08,30,12,11,17.20
2010,08,30,12,12,17.10
2010,08,30,12,13,17.00
2010,08,30,12,14,17.00
2010,08,30,12,15,16.90
2010,08,30,12,16,16.90
2010,08,30,12,17,16.80
2010,08,30,12,18,16.80
2010,08,30,12,19,16.80
2010,08,30,12,20,16.80
2010,08,30,12,21,16.80
2010,08,30,12,22,16.80
2010,08,30,12,23,16.80
2010,08,30,12,24,16.80
2010,08,30,12,25,16.80
2010,08,30,12,26,16.90
2010,08,30,12,27,17.00
2010,08,30,12,28,17.10
2010,08,30,12,29,17.20
2010,08,30,12,30,17.30
2010,08,30,12,31,17.30
2010,08,30,12,32,17.30
2010,08,30,12,33,17.40
2010,08,30,12,34,17.40
2010,08,30,12,35,17.40
2010,08,30,12,36,17.40
2010,08,30,12,37,17.40
2010,08,30,12,38,17.40
2010,08,30,12,39,17.50
2010,08,30,12,40,17.60
2010,08,30,12,41,17.60
2010,08,30,12,42,17.60
2010,08,30,12,43,17.60
2010,08,30,12,44,17.60
2010,08,30,12,45,17.60
2010,08,30,12,46,17.60
2010,08,30,12,47,17.60
2010,08,30,12,48,17.70
2010,08,30,12,49,17.80
2010,08,30,12,50,17.80
2010,08,30,12,51,17.80
2010,08,30,12,52,17.80
2010,08,30,12,53,17.70
2010,08,30,12,54,17.60
2010,08,30,12,55,17.50
2010,08,30,12,56,17.40
2010,08,30,12,57,17.50
2010,08,30,12,58,17.60
2010,08,30,12,59,17.60
2010,08,30,13,00,17.70
2010,08,30,13,01,17.70
2010,08,30,13,02,17.70
2010,08,30,13,03,17.70
2010,08,30,13,04,17.70
2010,08,30,13,05,17.60
2010,08,30,13,06,17.70
2010,08,30,13,07,17.70
2010,08,30,13,08,17.70
2010,08,30,13,09,17.70
2010,08,30,13,10,17.70
2010,08,30,13,11,17.70
2010,08,30,13,12,17.70
2010,08,30,13,13,17.70
2010,08,30,13,14,17.70
2010,08,30,13,15,17.70
2010,08,30,13,16,17.80
2010,08,30,13,17,17.80
2010,08,30,13,18,17.90
2010,08,30,13,19,17.90
2010,08,30,13,20,17.90
2010,08,30,13,21,17.80
2010,08,30,13,22,17.70
2010,08,30,13,23,17.70
2010,08,30,13,24,17.70
2010,08,30,13,25,17.60
2010,08,30,13,26,17.60
2010,08,30,13,27,17.50
2010,08,30,13,28,17.50
2010,08,30,13,29,17.40
2010,08,30,13,30,17.40
2010,08,30,13,31,17.30
2010,08,30,13,32,17.20
2010,08,30,13,33,17.30
2010,08,30,13,34,17.40
2010,08,30,13,35,17.50
2010,08,30,13,36,17.50
2010,08,30,13,37,17.60
2010,08,30,13,38,17.70
2010,08,30,13,39,17.70
2010,08,30,13,40,17.70
2010,08,30,13,41,17.70
2010,08,30,13,42,17.80
2010,08,30,13,43,17.80
2010,08,30,13,44,17.80
2010,08,30,13,45,17.80
2010,08,30,13,46,17.80
2010,08,30,13,47,17.80
2010,08,30,13,48,17.80
2010,08,30,13,49,17.80
2010,08,30,13,50,17.80
2010,08,30,13,51,17.80
2010,08,30,13,52,17.70
2010,08,30,13,53,17.70
2010,08,30,13,54,17.80
2010,08,30,13,55,17.90
2010,08,30,13,56,17.90
2010,08,30,13,57,17.90
2010,08,30,13,58,18.00
2010,08,30,13,59,18.00
2010,08,30,14,00,18.10
2010,08,30,14,01,18.20
2010,08,30,14,02,18.20
2010,08,30,14,03,18.20
2010,08,30,14,04,18.30
2010,08,30,14,05,18.30
2010,08,30,14,06,18.20
2010,08,30,14,07,18.20
2010,08,30,14,08,18.20
2010,08,30,14,09,18.10
2010,08,30,14,10,18.00
2010,08,30,14,11,17.90
2010,08,30,14,12,17.80
2010,08,30,14,13,17.80
2010,08,30,14,14,17.80
2010,08,30,14,15,17.80
2010,08,30,14,16,17.90
2010,08,30,14,17,18.00
2010,08,30,14,18,18.00
2010,08,30,14,19,18.00
2010,08,30,14,20,18.00
2010,08,30,14,21,18.10
2010,08,30,14,22,18.10
2010,08,30,14,23,18.10
2010,08,30,14,24,18.00
2010,08,30,14,25,18.00
2010,08,30,14,26,18.00
2010,08,30,14,27,18.00
2010,08,30,14,28,18.10
2010,08,30,14,29,18.20
2010,08,30,14,30,18.20
2010,08,30,14,31,18.20
2010,08,30,14,32,18.20
2010,08,30,14,33,18.20
2010,08,30,14,34,18.10
2010,08,30,14,35,18.10
2010,08,30,14,36,18.10
2010,08,30,14,37,18.10
2010,08,30,14,38,18.10
2010,08,30,14,39,18.20
2010,08,30,14,40,18.20
2010,08,30,14,41,18.20
2010,08,30,14,42,18.20
2010,08,30,14,43,18.30
2010,08,30,14,44,18.30
2010,08,30,14,45,18.40
2010,08,30,14,46,18.50
2010,08,30,14,47,18.50
2010,08,30,14,48,18.60
2010,08,30,14,49,18.60
2010,08,30,14,50,18.60
2010,08,30,14,51,18.60
2010,08,30,14,52,18.60
2010,08,30,14,53,18.60
2010,08,30,14,54,18.60
2010,08,30,14,55,18.60
2010,08,30,14,56,18.70
2010,08,30,14,57,18.80
2010,08,30,14,58,18.80
2010,08,30,14,59,18.90
2010,08,30,15,00,19.00
2010,08,30,15,01,19.10
2010,08,30,15,02,19.10
2010,08,30,15,03,19.20
2010,08,30,15,04,19.30
2010,08,30,15,05,19.30
2010,08,30,15,06,19.40
2010,08,30,15,07,19.50
2010,08,30,15,08,19.60
2010,08,30,15,09,19.60
2010,08,30,15,10,19.70
2010,08,30,15,11,19.70
2010,08,30,15,12,19.70
2010,08,30,15,13,19.70
2010,08,30,15,14,19.70
2010,08,30,15,15,19.60
2010,08,30,15,16,19.50
2010,08,30,15,17,19.40
2010,08,30,15,18,19.40
2010,08,30,15,19,19.40
2010,08,30,15,20,19.40
2010,08,30,15,21,19.40
2010,08,30,15,22,19.40
2010,08,30,15,23,19.40
2010,08,30,15,24,19.30
2010,08,30,15,25,19.30
2010,08,30,15,26,19.30
2010,08,30,15,27,19.30
2010,08,30,15,28,19.30
2010,08,30,15,29,19.40
2010,08,30,15,30,19.60
2010,08,30,15,31,19.70
2010,08,30,15,32,19.90
2010,08,30,15,33,20.00
2010,08,30,15,34,20.00
2010,08,30,15,35,20.10
2010,08,30,15,36,20.20
2010,08,30,15,37,20.20
2010,08,30,15,38,20.20
2010,08,30,15,39,20.20
2010,08,30,15,40,20.20
2010,08,30,15,41,20.10
2010,08,30,15,42,20.00
2010,08,30,15,43,20.00
2010,08,30,15,44,19.90
2010,08,30,15,45,19.90
2010,08,30,15,46,19.90
2010,08,30,15,47,19.90
2010,08,30,15,48,19.90
2010,08,30,15,49,19.90
2010,08,30,15,50,19.90
2010,08,30,15,51,19.90
2010,08,30,15,52,19.90
2010,08,30,15,53,19.90
2010,08,30,15,54,19.90
2010,08,30,15,55,20.00
2010,08,30,15,56,20.10
2010,08,30,15,57,20.00
2010,08,30,15,58,20.00
2010,08,30,15,59,20.00
2010,08,30,16,00,20.10
2010,08,30,16,01,20.10
2010,08,30,16,02,20.20
2010,08,30,16,03,20.30
2010,08,30,16,04,20.40
2010,08,30,16,05,20.50
2010,08,30,16,06,20.70
2010,08,30,16,07,20.80
2010,08,30,16,08,20.90
2010,08,30,16,09,20.90
2010,08,30,16,10,20.90
2010,08,30,16,11,20.90
2010,08,30,16,12,21.00
2010,08,30,16,13,21.10
2010,08,30,16,14,21.10
2010,08,30,16,15,21.20
2010,08,30,16,16,21.20
2010,08,30,16,17,21.10
2010,08,30,16,18,21.10
2010,08,30,16,19,21.10
2010,08,30,16,20,21.10
2010,08,30,16,21,21.00
2010,08,30,16,22,21.00
2010,08,30,16,23,21.00
2010,08,30,16,24,20.90
2010,08,30,16,25,20.90
2010,08,30,16,26,20.90
2010,08,30,16,27,20.80
2010,08,30,16,28,20.70
2010,08,30,16,29,20.70
2010,08,30,16,30,20.60
2010,08,30,16,31,20.50
2010,08,30,16,32,20.50
2010,08,30,16,33,20.50
2010,08,30,16,34,20.50
2010,08,30,16,35,20.40
2010,08,30,16,36,20.40
2010,08,30,16,37,20.40
2010,08,30,16,38,20.40
2010,08,30,16,39,20.40
2010,08,30,16,40,20.40
2010,08,30,16,41,20.30
2010,08,30,16,42,20.30
2010,08,30,16,43,20.40
2010,08,30,16,44,20.40
2010,08,30,16,45,20.50
2010,08,30,16,46,20.60
2010,08,30,16,47,20.70
2010,08,30,16,48,20.70
2010,08,30,16,49,20.80
2010,08,30,16,50,20.80
2010,08,30,16,51,20.80
2010,08,30,16,52,20.90
2010,08,30,16,53,21.00
2010,08,30,16,54,21.10
2010,08,30,16,55,21.10
2010,08,30,16,56,21.10
2010,08,30,16,57,21.00
2010,08,30,16,58,20.90
2010,08,30,16,59,20.80
2010,08,30,17,00,20.60
2010,08,30,17,01,20.50
2010,08,30,17,02,20.40
2010,08,30,17,03,20.30
2010,08,30,17,04,20.30
2010,08,30,17,05,20.30
2010,08,30,17,06,20.30
2010,08,30,17,07,20.30
2010,08,30,17,08,20.30
2010,08,30,17,09,20.20
2010,08,30,17,10,20.30
2010,08,30,17,11,20.30
2010,08,30,17,12,20.30
2010,08,30,17,13,20.30
2010,08,30,17,14,20.30
2010,08,30,17,15,20.30
2010,08,30,17,16,20.30
2010,08,30,17,17,20.20
2010,08,30,17,18,20.20
2010,08,30,17,19,20.10
2010,08,30,17,20,20.10
2010,08,30,17,21,20.00